Zurück zum Katalog

BREEZE-M DEB

TANK

AktivHEO
NORAD 37604·DEBRIS·🇷🇺 Russia

Gestartet May 20, 2011 von Baikonur Cosmodrome

Loading…

Nächste Überflüge (nächste 24 Stunden)

TLE

AktuellSource: Space-Track

Epoche: Sep 13, 2026, 07:05 UTC

1 37604U 11021C   26256.29544716  .00000975  00000-0  41949-3 0  9995
2 37604  49.3557   2.0474 5811973 102.8104 324.7515  4.28245972224088

Verfolge BREEZE-M DEB in Echtzeit mit AllMySat

Download on the App Store